TimeEST,TemperatureF,Dew PointF,Humidity,Sea Level PressureIn,VisibilityMPH,Wind Direction,Wind SpeedMPH,Gust SpeedMPH,PrecipitationIn,Events,Conditions,WindDirDegrees,DateUTC
12:53 AM,64.0,60.1,87,30.16,10.0,SSW,4.6,-,N/A,,Overcast,210,2013-01-12 05:53:00
1:53 AM,62.1,59.0,90,30.16,10.0,SSW,4.6,-,N/A,,Clear,200,2013-01-12 06:53:00
3:53 AM,61.0,59.0,93,30.15,8.0,SSW,4.6,-,N/A,,Clear,210,2013-01-12 08:53:00
4:53 AM,60.1,59.0,96,30.14,6.0,SSW,4.6,-,N/A,,Clear,210,2013-01-12 09:53:00
5:53 AM,60.1,59.0,96,30.14,5.0,SW,5.8,-,N/A,,Clear,230,2013-01-12 10:53:00
6:18 AM,60.8,59.0,94,30.15,5.0,SW,3.5,-,N/A,,Partly Cloudy,230,2013-01-12 11:18:00
6:53 AM,60.1,59.0,96,30.15,4.0,SSW,5.8,-,N/A,,Clear,210,2013-01-12 11:53:00
7:53 AM,62.1,60.1,93,30.17,4.0,SSW,5.8,-,N/A,,Clear,210,2013-01-12 12:53:00
8:53 AM,62.1,60.1,93,30.18,4.0,Calm,Calm,-,N/A,,Partly Cloudy,0,2013-01-12 13:53:00
9:20 AM,64.4,60.8,88,30.19,7.0,SW,4.6,-,N/A,,Partly Cloudy,230,2013-01-12 14:20:00
9:53 AM,66.9,62.1,84,30.19,10.0,WSW,4.6,-,N/A,,Clear,240,2013-01-12 14:53:00
10:53 AM,71.1,62.1,73,30.18,10.0,WSW,8.1,-,N/A,,Clear,240,2013-01-12 15:53:00
11:53 AM,73.9,62.1,66,30.15,10.0,WSW,5.8,-,N/A,,Clear,250,2013-01-12 16:53:00
12:53 PM,75.9,61.0,60,30.13,10.0,West,4.6,-,N/A,,Clear,260,2013-01-12 17:53:00
1:53 PM,79.0,59.0,50,30.12,10.0,WSW,11.5,-,N/A,,Clear,250,2013-01-12 18:53:00
2:53 PM,80.1,57.9,47,30.11,10.0,West,6.9,-,N/A,,Clear,260,2013-01-12 19:53:00
3:53 PM,80.1,57.9,47,30.11,10.0,West,5.8,-,N/A,,Clear,260,2013-01-12 20:53:00
4:53 PM,78.1,59.0,52,30.11,10.0,SW,3.5,-,N/A,,Clear,220,2013-01-12 21:53:00
5:53 PM,73.0,59.0,61,30.11,10.0,South,3.5,-,N/A,,Clear,180,2013-01-12 22:53:00
6:53 PM,68.0,57.9,70,30.11,10.0,SSW,4.6,-,N/A,,Clear,200,2013-01-12 23:53:00
7:53 PM,66.0,57.9,75,30.10,10.0,South,3.5,-,N/A,,Clear,190,2013-01-13 00:53:00
8:53 PM,64.0,59.0,84,30.11,10.0,Calm,Calm,-,N/A,,Clear,0,2013-01-13 01:53:00
9:53 PM,61.0,57.0,87,30.11,10.0,Calm,Calm,-,N/A,,Clear,0,2013-01-13 02:53:00
10:53 PM,64.0,59.0,84,30.12,10.0,SSW,4.6,-,N/A,,Clear,210,2013-01-13 03:53:00
11:53 PM,61.0,57.0,87,30.12,10.0,SSW,4.6,-,N/A,,Clear,200,2013-01-13 04:53:00